Location: Unspecified
(0.0000°N, 0.0000°E)
Time: 09:28:21
(UTC+02:00)

Tiangong 2 - Visible Passes

Search period start: 22 August 2017 00:00
Search period end: 01 September 2017 00:00
Orbit: 390 x 395 km, 42.8° (Epoch: 21 August)

Date Brightness Start Highest point End Pass type
(mag) Time Alt. Az. Time Alt. Az. Time Alt. Az.
29 Aug 3.4 21:11:33 10° S 21:12:19 14° S 21:12:19 14° S visible
30 Aug 4.0 21:50:42 10° WSW 21:51:37 17° WSW 21:51:37 17° WSW visible
31 Aug 1.0 20:53:24 10° SW 20:56:36 72° SE 20:58:34 21° NE visible
